Simultaneous Nadir Overpasses (SNOs) Predictions

Prediction of SNOs between AURA and NPP Satellite Orbit:

Table of predicted SNOs for the next 14.0 days since TLE Epoch: 3/23/2017
Index Date (AURA) Time (AURA) Lat,Lon (AURA) SZA (AURA ) Date (NPP) Time (NPP) Lat,Lon (NPP) SZA (NPP ) Distance(km) Time Diff (sec)
1 03/24/2017 11:25:16 -79.41, 84.86 88.76 03/24/2017 11:24:22 -79.41, 84.93 88.74 1.63 54
2 03/24/2017 12:14:37 79.59,-106.25 90.97 03/24/2017 12:15:01 79.58,-106.36 90.97 2.28 24
3 03/27/2017 03:41:44 -79.41,-159.22 89.84 03/27/2017 03:41:14 -79.41,-159.31 89.80 1.89 30
4 03/27/2017 04:31:02 79.70, 10.47 89.72 03/27/2017 04:31:49 79.70, 10.50 89.68 0.56 47
5 03/29/2017 19:58:09 -79.56, -42.29 91.13 03/29/2017 19:58:02 -79.57, -42.20 91.14 1.87 7
6 03/29/2017 20:47:30 79.74, 126.62 88.60 03/29/2017 20:48:41 79.73, 126.51 88.57 2.17 71
7 04/01/2017 11:25:17 79.31, -95.76 88.20 04/01/2017 11:24:17 79.30, -95.89 88.27 2.93 60
8 04/01/2017 12:14:37 -79.59, 73.81 92.23 04/01/2017 12:14:54 -79.60, 73.81 92.24 0.25 17
9 04/04/2017 03:41:41 79.49, 21.31 86.90 04/04/2017 03:41:04 79.49, 21.42 86.91 2.40 37
10 04/04/2017 04:31:04 -79.66,-169.88 93.36 04/04/2017 04:31:45 -79.65,-169.92 93.39 0.82 41
11 04/06/2017 19:58:07 79.54, 137.56 85.79 04/06/2017 19:57:54 79.55, 137.66 85.78 2.21 13




NCC Satellite Simultaneous Nadir Overpasses (SNOs) Prediction Service
